Rush City, MN

12:57 PM CST on January 22, 2018 (GMT -0600)
Rush City Regional

Weather History for KROS - April, 2014

Change the Weather History Date:

Wednesday, April 9, 2014

  Actual Average (KCBG) Record (KCBG)
Temperature  
Mean Temperature 47 °F -  
Max Temperature 66 °F 47 °F 76 °F (1955)
Min Temperature 28 °F 28 °F 3 °F (1998)
Degree Days  
Heating Degree Days 18    
Moisture  
Dew Point 32 °F    
Average Humidity 58    
Maximum Humidity 85    
Minimum Humidity 35    
Precipitation  
Precipitation 0.00 in - - ()
Sea Level Pressure  
Sea Level Pressure 29.70 in    
Wind  
Wind Speed 6 mph (South)    
Max Wind Speed 17 mph    
Max Gust Speed 26 mph    
Visibility 10 miles    
Events      
Averages and records for this station are not official NWS values.
T = Trace of Precipitation, MM = Missing Value Source: NWS Daily Summary

Daily Weather History Graph

Daily Weather History Graph

Search for Another Location

Airport or City:

Trip Planner

Search our weather history database for the weather conditions in past years. The results will help you decide how hot, cold, wet, or windy it might be!

Date:

Astronomy

Apr. 09, 2014 Rise Set
Actual Time 6:36 AM CDT 7:50 PM CDT
Civil Twilight 6:06 AM CDT 8:21 PM CDT
Nautical Twilight 5:29 AM CDT 8:58 PM CDT
Astronomical Twilight 4:50 AM CDT 9:37 PM CDT
Moon 2:24 PM CDT (4/9) 3:42 AM CDT (4/9)
Length of Visible Light 14h 14m
Length of Day
13h 13m
Waxing Gibbous, 72% of the Moon is Illuminated
Apr 9
Waxing Gibbous
Apr 15
Full
Apr 22
Last Quarter
Apr 29
New
May 6
First Quarter

Hourly Weather History & Observations

Time (CDT) Temp. Windchill Dew Point Humidity Pressure Visibility Wind Dir Wind Speed Gust Speed Precip Events Conditions
12:15 AM 30.2 °F - 24.4 °F 79% 29.95 in 10.0 mi Calm Calm - N/A   Clear
12:35 AM 28.9 °F - 23.9 °F 81% 29.94 in 10.0 mi Calm Calm - N/A   Clear
12:55 AM 29.3 °F - 23.9 °F 80% 29.94 in 10.0 mi Calm Calm - N/A   Clear
1:15 AM 28.6 °F - 23.4 °F 81% 29.94 in 10.0 mi Calm Calm - N/A   Clear
1:35 AM 28.8 °F - 24.1 °F 83% 29.94 in 10.0 mi Calm Calm - N/A   Clear
1:54 AM 28.4 °F - 24.4 °F 85% 29.94 in 10.0 mi Calm Calm - N/A   Scattered Clouds
2:15 AM 29.8 °F - 23.4 °F 77% 29.93 in 10.0 mi Calm Calm - N/A   Scattered Clouds
2:35 AM 31.1 °F 27.7 °F 23.7 °F 74% 29.92 in 10.0 mi SSE 3.5 mph - N/A   Clear
2:54 AM 31.5 °F - 23.7 °F 73% 29.91 in 10.0 mi Calm Calm - N/A   Clear
3:15 AM 30.0 °F 26.5 °F 23.4 °F 76% 29.91 in 10.0 mi South 3.5 mph - N/A   Clear
3:35 AM 29.5 °F 25.9 °F 23.2 °F 77% 29.91 in 10.0 mi South 3.5 mph - N/A   Clear
3:55 AM 30.2 °F 26.7 °F 24.3 °F 79% 29.90 in 10.0 mi SSE 3.5 mph - N/A   Clear
4:15 AM 31.5 °F 28.1 °F 24.8 °F 76% 29.90 in 10.0 mi SSE 3.5 mph - N/A   Mostly Cloudy
4:35 AM 32.0 °F 28.7 °F 24.8 °F 75% 29.90 in 10.0 mi South 3.5 mph - N/A   Overcast
4:55 AM 32.4 °F 29.1 °F 25.3 °F 75% 29.89 in 10.0 mi South 3.5 mph - N/A   Overcast
5:15 AM 32.9 °F 29.8 °F 25.5 °F 74% 29.89 in 10.0 mi South 3.5 mph - N/A   Overcast
5:35 AM 33.1 °F 27.7 °F 26.1 °F 75% 29.88 in 10.0 mi South 5.8 mph - N/A   Mostly Cloudy
5:55 AM 33.3 °F 30.2 °F 26.4 °F 76% 29.88 in 10.0 mi South 3.5 mph - N/A   Scattered Clouds
6:15 AM 33.3 °F 27.9 °F 27.1 °F 78% 29.86 in 10.0 mi South 5.8 mph - N/A   Scattered Clouds
6:35 AM 33.3 °F 28.9 °F 27.3 °F 79% 29.86 in 10.0 mi SSE 4.6 mph - N/A   Scattered Clouds
6:55 AM 33.8 °F 28.6 °F 27.9 °F 79% 29.86 in 10.0 mi South 5.8 mph - N/A   Overcast
7:15 AM 34.7 °F 29.6 °F 28.2 °F 77% 29.85 in 10.0 mi South 5.8 mph - N/A   Mostly Cloudy
7:35 AM 34.9 °F 29.0 °F 28.4 °F 77% 29.84 in 10.0 mi SSE 6.9 mph - N/A   Overcast
7:55 AM 35.6 °F 29.2 °F 28.8 °F 76% 29.84 in 10.0 mi SSE 8.1 mph - N/A   Overcast
8:15 AM 36.7 °F 30.5 °F 29.3 °F 75% 29.82 in 10.0 mi SSE 8.1 mph - N/A   Overcast
8:35 AM 38.1 °F 31.2 °F 29.3 °F 71% 29.81 in 10.0 mi SSE 10.4 mph - N/A   Overcast
8:55 AM 39.4 °F 31.8 °F 29.3 °F 67% 29.80 in 10.0 mi SSE 12.7 mph - N/A   Mostly Cloudy
9:15 AM 41.2 °F 34.5 °F 30.0 °F 65% 29.78 in 10.0 mi SSE 11.5 mph - N/A   Scattered Clouds
9:35 AM 43.3 °F 37.2 °F 30.4 °F 60% 29.78 in 10.0 mi SSE 11.5 mph - N/A   Clear
9:55 AM 43.9 °F 37.9 °F 30.9 °F 60% 29.76 in 10.0 mi SSE 11.5 mph - N/A   Clear
10:15 AM 46.8 °F - 31.3 °F 55% 29.75 in 10.0 mi South 12.7 mph 18.4 mph N/A   Clear
10:35 AM 48.6 °F - 30.6 °F 50% 29.74 in 10.0 mi South 10.4 mph 19.6 mph N/A   Clear
10:55 AM 49.5 °F - 31.6 °F 50% 29.73 in 10.0 mi South 11.5 mph 18.4 mph N/A   Clear
11:14 AM 51.1 °F - 31.1 °F 46% 29.72 in 10.0 mi South 13.8 mph 20.7 mph N/A   Clear
11:35 AM 52.9 °F - 30.4 °F 42% 29.71 in 10.0 mi South 16.1 mph 23.0 mph N/A   Clear
11:55 AM 54.1 °F - 30.6 °F 41% 29.69 in 10.0 mi South 13.8 mph 21.9 mph N/A   Clear
12:15 PM 55.4 °F - 30.9 °F 39% 29.69 in 10.0 mi South 13.8 mph 17.3 mph N/A   Clear
12:35 PM 56.3 °F - 30.0 °F 37% 29.67 in 10.0 mi South 11.5 mph 21.9 mph N/A   Clear
12:55 PM 57.4 °F - 30.7 °F 36% 29.66 in 10.0 mi SSW 13.8 mph 20.7 mph N/A   Clear
1:15 PM 58.3 °F - 31.6 °F 36% 29.65 in 10.0 mi South 12.7 mph 21.9 mph N/A   Clear
1:35 PM 57.7 °F - 30.9 °F 36% 29.64 in 10.0 mi South 11.5 mph 21.9 mph N/A   Clear
1:55 PM 58.5 °F - 31.5 °F 36% 29.63 in 10.0 mi South 16.1 mph 23.0 mph N/A   Clear
2:15 PM 59.9 °F - 32.2 °F 35% 29.63 in 10.0 mi SSW 17.3 mph 26.5 mph N/A   Clear
2:35 PM 60.3 °F - 32.4 °F 35% 29.62 in 10.0 mi SSW 17.3 mph 24.2 mph N/A   Clear
2:55 PM 60.8 °F - 33.8 °F 36% 29.61 in 10.0 mi South 15.0 mph 21.9 mph N/A   Clear
3:15 PM 61.0 °F - 34.0 °F 36% 29.60 in 10.0 mi South 11.5 mph 21.9 mph N/A   Clear
3:35 PM 62.2 °F - 34.5 °F 36% 29.59 in 10.0 mi SSW 11.5 mph 21.9 mph N/A   Clear
3:55 PM 63.5 °F - 35.1 °F 35% 29.58 in 10.0 mi South 12.7 mph 21.9 mph N/A   Clear
4:15 PM 64.2 °F - 37.0 °F 37% 29.57 in 10.0 mi South 11.5 mph 16.1 mph N/A   Clear
4:35 PM 64.2 °F - 36.1 °F 35% 29.56 in 10.0 mi SSW 13.8 mph 23.0 mph N/A   Scattered Clouds
4:55 PM 64.8 °F - 36.9 °F 36% 29.56 in 10.0 mi SSW 13.8 mph - N/A   Clear
5:15 PM 65.5 °F - 37.4 °F 35% 29.55 in 10.0 mi SSW 11.5 mph - N/A   Clear
5:35 PM 66.0 °F - 37.8 °F 35% 29.54 in 10.0 mi SSW 11.5 mph - N/A   Clear
5:55 PM 64.9 °F - 38.1 °F 37% 29.54 in 10.0 mi SSW 8.1 mph - N/A   Clear
6:15 PM 65.5 °F - 39.4 °F 38% 29.54 in 10.0 mi SSW 8.1 mph - N/A   Clear
6:35 PM 64.8 °F - 40.3 °F 41% 29.53 in 10.0 mi SSW 9.2 mph - N/A   Clear
6:55 PM 63.5 °F - 41.0 °F 44% 29.52 in 10.0 mi SSW 6.9 mph - N/A   Clear
7:15 PM 63.0 °F - 41.7 °F 46% 29.51 in 10.0 mi SSW 8.1 mph - N/A   Clear
7:35 PM 61.2 °F - 42.1 °F 50% 29.50 in 10.0 mi South 3.5 mph - N/A   Clear
7:55 PM 59.5 °F - 41.5 °F 51% 29.49 in 10.0 mi South 4.6 mph - N/A   Scattered Clouds
8:15 PM 57.2 °F - 41.2 °F 55% 29.48 in 10.0 mi South 5.8 mph - N/A   Scattered Clouds
8:35 PM 57.4 °F - 41.2 °F 55% 29.47 in 10.0 mi South 6.9 mph - N/A   Scattered Clouds
8:55 PM 57.4 °F - 41.4 °F 55% 29.46 in 10.0 mi South 8.1 mph - N/A   Scattered Clouds
9:15 PM 54.9 °F - 41.0 °F 60% 29.46 in 10.0 mi SSE 6.9 mph - N/A   Scattered Clouds
9:35 PM 55.6 °F - 40.6 °F 57% 29.45 in 10.0 mi South 8.1 mph - N/A   Scattered Clouds
9:55 PM 57.4 °F - 40.6 °F 54% 29.47 in 10.0 mi SSW 10.4 mph - N/A   Mostly Cloudy
10:15 PM 59.9 °F - 42.1 °F 52% 29.49 in 10.0 mi SW 8.1 mph - N/A   Overcast
10:35 PM 56.7 °F - 43.3 °F 61% 29.46 in 10.0 mi Calm Calm - N/A   Scattered Clouds
10:55 PM 57.2 °F - 43.0 °F 59% 29.46 in 10.0 mi SSW 4.6 mph - N/A   Scattered Clouds
11:15 PM 58.6 °F - 42.6 °F 55% 29.46 in 10.0 mi SW 5.8 mph - N/A   Scattered Clouds
11:35 PM 57.9 °F - 42.4 °F 56% 29.47 in 10.0 mi WSW 4.6 mph - N/A   Scattered Clouds
11:55 PM 56.3 °F - 43.2 °F 61% 29.49 in 10.0 mi West 8.1 mph - N/A   Scattered Clouds